Regional Weather Roundup
Issued by NWS

Home | Current Version | Previous Version | Graphics & Text | Print | Product List | Glossary On
Versions: 1 2 3 4 5 6 7 8 9 10 11 12 13 14 15 16 17 18 19 20 21 22 23 24 25 26 27 28 29 30 31 32 33 34 35 36 37 38 39 40 41 42 43 44 45 46 47 48 49 50
729
ASUS43 KOAX 022310
RWRNE

WEATHER ROUNDUP FOR NEBRASKA
NATIONAL WEATHER SERVICE OMAHA NE
500 PM CST FRI DEC 02 2016

NOTES: SATELLITE DATA IS BEING USED TO AUGMENT CLOUD COVER ABOVE
       12000 FEET.
       "FAIR" INDICATES FEW OR NO CLOUDS BELOW 12,000 FEET WITH NO
       SIGNIFICANT WEATHER AND/OR OBSTRUCTIONS TO VISIBILITY.

  * THESE STATIONS DO NOT REPORT WEATHER SUCH AS RAIN...SNOW OR FOG.

NEZ001>004-019>022-054>056-030000-
NEBRASKA PANHANDLE

CITY           SKY/WX    TMP DP  RH WIND       PRES   REMARKS
SCOTTSBLUFF    CLEAR     36  19  50 S5        30.19R WCI  32
ALLIANCE       MOCLDY    38  18  44 CALM      30.17S
CHADRON        CLOUDY    40  19  43 W3        30.18S
KIMBALL        MOCLDY    34  25  69 S7        30.18S WCI  28
SIDNEY         PTCLDY    35  22  58 S5        30.20S WCI  31
$$

NEZ057>060-069>072-079>082-030000-
SOUTHWEST NEBRASKA

CITY           SKY/WX    TMP DP  RH WIND       PRES   REMARKS
NORTH PLATTE   CLEAR     40  20  44 CALM      30.23F
IMPERIAL       MOCLDY    39  23  52 CALM      30.22F
LEXINGTON      CLEAR     37  26  63 S3        30.26F
MCCOOK         CLEAR     39  22  50 E3        30.25S
OGALLALA       CLEAR     39  24  55 CALM      30.22S
$$

NEZ005>010-023>029-035>040-094-030000-
NORTH CENTRAL NEBRASKA

CITY           SKY/WX    TMP DP  RH WIND       PRES   REMARKS
VALENTINE      CLEAR     36  25  64 NW6       30.22S WCI  31
AINSWORTH      CLEAR     34  25  69 NE6       30.22S WCI  29
BROKEN BOW     CLEAR     38  25  59 S6        30.24R WCI  33
O`NEILL        CLEAR     35  27  73 CALM      30.26S
ORD            CLEAR     39  22  50 E3        30.25S
THEDFORD       CLEAR     41  22  45 CALM      30.22S
$$

NEZ041-046>049-061>064-073>077-083>087-030000-
SOUTH CENTRAL NEBRASKA

CITY           SKY/WX    TMP DP  RH WIND       PRES   REMARKS
GRAND ISLAND   CLEAR     36  25  64 CALM      30.29R
AURORA         CLEAR     36  24  62 CALM      30.29R
HASTINGS       PTCLDY    36  26  67 CALM      30.29R
HEBRON         PTCLDY    41  26  55 CALM      30.29S
HOLDREGE       CLEAR     38  23  56 CALM      30.26F
KEARNEY *      CLEAR     37  23  56 CALM      30.27F
YORK           CLEAR     36  25  64 CALM      30.29S HAZE
$$

NEZ011>018-030>034-042>045-030000-
NORTHEAST NEBRASKA

CITY           SKY/WX    TMP DP  RH WIND       PRES   REMARKS
NORFOLK        CLOUDY    34  25  69 CALM      30.29S
ALBION         CLEAR     34  26  71 NE6       30.28R WCI  29
BLAIR          CLOUDY    36  28  74 CALM      30.29R
FREMONT        CLOUDY    37  29  74 CALM      30.31R
TEKAMAH        CLOUDY    38  29  70 W7        30.30S WCI  33
WAYNE          CLOUDY    35  29  80 NW5       30.29S WCI  31
$$

NEZ050>053-065>068-078-088>093-030000-
SOUTHEAST NEBRASKA

CITY           SKY/WX    TMP DP  RH WIND       PRES   REMARKS
LINCOLN        CLEAR     39  27  62 N6        30.31R WCI  35
OMAHA EPPLEY   MOCLDY    36  28  73 N3        30.31R
BEATRICE       CLEAR     37  26  66 NW5       30.30R WCI  33
FALLS CITY       N/A    N/A N/A N/A MISG      30.30R
NEBRASKA CITY  PTCLDY    39  26  59 N5        30.30R
PLATTSMOUTH    PTCLDY    37  25  61 N3        30.30R
$$

NEZ044-045-051>053-067-030000-
OMAHA AREA

CITY           SKY/WX    TMP DP  RH WIND       PRES   REMARKS
OMAHA EPPLEY   MOCLDY    36  28  73 N3        30.31R
BLAIR          CLOUDY    36  28  74 CALM      30.29R
FREMONT        CLOUDY    37  29  74 CALM      30.31R
MILLARD        CLEAR     39  29  68 CALM      30.31R
OFFUTT AFB     PTCLDY    37  30  76 N5        30.30R WCI  34
PLATTSMOUTH    PTCLDY    37  25  61 N3        30.30R
WAHOO          FAIR      35  28  75 N6        30.31R WCI  30
$$




USA.gov is the U.S. government's official web portal to all federal, state and local government web resources and services.